Tekamah, NE

5:46 PM CDT on May 25, 2017 (GMT -0500)
Tekamah

Weather History for KTQE - October, 2013

Change the Weather History Date:

Monday, October 28, 2013

  Actual Average Record
Temperature  
Mean Temperature 45 °F -  
Max Temperature 54 °F 60 °F 82 °F (2016)
Min Temperature 37 °F 36 °F 17 °F (1967)
Degree Days  
Heating Degree Days 20    
Moisture  
Dew Point 34 °F    
Average Humidity 65    
Maximum Humidity 83    
Minimum Humidity 48    
Precipitation  
Precipitation 0.01 in - - ()
Sea Level Pressure  
Sea Level Pressure 30.16 in    
Wind  
Wind Speed 10 mph (NE)    
Max Wind Speed 18 mph    
Max Gust Speed 23 mph    
Visibility 10 miles    
Events Rain    
Averages and records for this station are not official NWS values.
T = Trace of Precipitation, MM = Missing Value Source: NWS Daily Summary

Daily Weather History Graph

Daily Weather History Graph

Search for Another Location

Airport or City:

Trip Planner

Search our weather history database for the weather conditions in past years. The results will help you decide how hot, cold, wet, or windy it might be!

Date:

Astronomy

Oct. 28, 2013 Rise Set
Actual Time 7:52 AM CDT 6:23 PM CDT
Civil Twilight 7:23 AM CDT 6:52 PM CDT
Nautical Twilight 6:51 AM CDT 7:25 PM CDT
Astronomical Twilight 6:18 AM CDT 7:57 PM CDT
Moon 1:41 AM CDT (10/28) 3:11 PM CDT (10/28)
Length of Visible Light 11h 28m
Length of Day
10h 31m
Waning Crescent, 34% of the Moon is Illuminated
Oct 28
Waning Crescent
Nov 3
New
Nov 9
First Quarter
Nov 17
Full
Nov 25
Last Quarter

Hourly Weather History & Observations

Time (CDT) Temp. Windchill Dew Point Humidity Pressure Visibility Wind Dir Wind Speed Gust Speed Precip Events Conditions
12:54 AM 43.0 °F 38.2 °F 35.1 °F 74% 29.99 in 10.0 mi North 8.1 mph - N/A   Clear
1:54 AM 41.0 °F 35.8 °F 34.0 °F 76% 30.01 in 10.0 mi North 8.1 mph - N/A   Clear
2:54 AM 39.9 °F 34.5 °F 33.1 °F 77% 30.04 in 10.0 mi North 8.1 mph - N/A   Clear
3:54 AM 37.9 °F 33.5 °F 33.1 °F 83% 30.05 in 10.0 mi North 5.8 mph - N/A   Clear
4:54 AM 37.0 °F 31.0 °F 32.0 °F 82% 30.07 in 10.0 mi North 8.1 mph - N/A   Clear
5:54 AM 39.0 °F 33.4 °F 33.1 °F 79% 30.10 in 10.0 mi NNE 8.1 mph - N/A   Clear
6:54 AM 39.9 °F 33.9 °F 32.0 °F 73% 30.14 in 10.0 mi NNE 9.2 mph - N/A   Clear
7:54 AM 41.0 °F 33.9 °F 32.0 °F 70% 30.17 in 10.0 mi NE 12.7 mph - N/A   Mostly Cloudy
8:54 AM 41.0 °F 33.1 °F 32.0 °F 70% 30.20 in 10.0 mi NE 15.0 mph - N/A   Partly Cloudy
9:54 AM 44.1 °F 37.4 °F 33.1 °F 65% 30.24 in 10.0 mi NE 13.8 mph - N/A   Clear
10:54 AM 45.0 °F 37.6 °F 33.1 °F 63% 30.21 in 10.0 mi ENE 17.3 mph - N/A   Clear
11:54 AM 48.9 °F - 33.1 °F 54% 30.21 in 10.0 mi ENE 11.5 mph - N/A   Clear
12:54 PM 52.0 °F - 34.0 °F 50% 30.23 in 10.0 mi NE 10.4 mph - N/A   Scattered Clouds
1:54 PM 53.1 °F - 35.1 °F 50% 30.20 in 10.0 mi NE 18.4 mph 21.9 mph N/A   Scattered Clouds
2:54 PM 53.1 °F - 34.0 °F 48% 30.19 in 10.0 mi NE 12.7 mph 23.0 mph N/A   Clear
3:54 PM 52.0 °F - 35.1 °F 53% 30.18 in 10.0 mi NE 18.4 mph - N/A   Clear
4:54 PM 51.1 °F - 35.1 °F 54% 30.19 in 10.0 mi ENE 12.7 mph 21.9 mph N/A   Clear
5:54 PM 50.0 °F - 35.1 °F 57% 30.20 in 10.0 mi ENE 8.1 mph - N/A   Clear
6:54 PM 50.0 °F - 35.1 °F 57% 30.20 in 10.0 mi ENE 12.7 mph - N/A   Partly Cloudy
7:54 PM 48.0 °F - 35.1 °F 61% 30.22 in 10.0 mi NE 10.4 mph - N/A   Clear
8:54 PM 46.9 °F - 36.0 °F 66% 30.23 in 10.0 mi NE 10.4 mph - 0.00 in Rain Light Rain
9:54 PM 46.9 °F - 35.1 °F 63% 30.22 in 10.0 mi ENE 9.2 mph - 0.00 in   Overcast
10:54 PM 46.0 °F 42.5 °F 35.1 °F 66% 30.22 in 10.0 mi ENE 6.9 mph - 0.00 in   Overcast
11:54 PM 45.0 °F 41.2 °F 37.0 °F 74% 30.22 in 10.0 mi East 6.9 mph - 0.01 in   Overcast